SCP
0 1 1 2 4 6 7 7 7 6 6 5 5 5 4 4 4 5 5 5 4 4 4 4 4 4 4 4 4 4 4 3 3 2 2 2 2 2 2 2 1 1 1
0 1 1 3 5 7 8 7 7 7 6 6 5 5 4 4 4 4 5 4 4 4 4 4 4 4 4 3 3 3 3 3 3 2 2 2 2 2 2 2 2 1 1
1 1 2 3 5 7 8 7 7 7 7 7 6 5 5 4 4 4 4 4 3 3 3 3 3 3 3 3 3 3 3 3 3 2 2 1 1 2 2 2 2 2 2
1 1 2 3 5 6 7 7 7 7 7 6 6 5 4 4 4 4 4 3 3 2 2 2 3 3 3 3 3 3 3 3 2 2 2 1 1 1 2 2 1 1 2
2 1 2 3 4 5 6 6 6 6 6 6 5 5 4 4 4 4 4 3 3 2 2 2 2 2 2 3 3 3 3 3 3 3 2 1 1 1 1 1 1 1 1
1 1 1 2 3 4 5 6 5 5 6 6 5 5 4 4 4 4 4 3 3 2 2 1 2 2 2 2 2 2 3 3 4 3 3 2 1 1 1 1 1 1 1
1 1 1 1 1 2 4 5 5 5 5 5 5 4 4 3 3 4 4 3 3 2 2 1 1 1 2 2 2 2 2 3 3 3 2 2 2 2 2 1 1 1 1
1 1 1 1 1 2 3 4 5 5 5 5 5 4 3 3 3 3 3 3 3 2 2 1 1 1 1 2 2 2 2 2 2 2 2 2 3 3 2 2 2 2 1
1 1 1 1 1 1 2 3 4 5 5 5 4 4 3 3 3 3 3 3 3 2 2 2 1 1 1 2 2 2 2 2 2 2 2 2 3 3 3 3 2 2 2
1 1 1 1 1 1 1 2 2 3 4 4 4 4 3 3 3 3 3 3 3 3 2 2 2 2 2 2 2 2 2 2 2 2 2 3 3 4 4 4 3 3 3
1 1 1 1 1 1 1 1 2 2 3 4 4 3 3 3 3 3 3 3 3 3 3 3 3 2 2 2 2 2 2 2 2 2 3 3 4 4 5 5 5 4 4
1 1 1 1 1 1 1 1 1 1 2 2 3 3 3 4 4 3 3 3 3 3 3 3 3 3 2 2 2 2 2 2 2 2 3 4 5 5 6 6 6 6 6
1 1 1 1 1 1 1 1 1 1 1 1 2 2 3 4 4 4 5 5 5 4 4 3 3 2 2 1 1 1 2 2 2 2 3 4 5 6 7 7 8 8 7
1 1 1 1 2 2 2 1 1 1 1 1 1 1 2 2 3 5 6 6 6 5 4 3 3 2 2 1 1 1 1 2 2 2 3 4 5 6 7 8 7 7 7
1 1 1 2 2 2 2 2 1 1 1 1 1 1 1 1 1 3 5 6 6 5 4 3 3 3 2 2 2 2 2 1 2 2 3 4 5 6 7 7 6 6 6
1 1 1 1 2 2 2 2 2 1 1 1 1 1 1 1 1 1 3 4 5 4 3 3 3 3 3 3 2 2 2 2 2 2 2 3 4 5 5 5 5 5 6
1 1 1 1 2 2 2 2 2 2 1 1 1 1 1 1 1 1 1 3 3 3 3 4 4 4 4 3 3 3 3 3 2 2 2 2 2 3 3 4 4 5 5
1 1 1 1 2 2 2 2 2 2 2 1 1 1 1 1 1 1 2 3 3 3 3 4 5 4 4 4 4 3 3 3 2 2 2 2 1 2 2 2 3 4 4
1 1 1 2 2 3 3 3 2 2 2 1 1 1 1 1 1 2 3 4 4 4 4 5 5 4 4 4 4 3 3 3 2 2 2 1 1 1 1 2 2 2 2
1 1 1 2 2 3 3 3 2 2 2 2 1 1 1 1 2 3 4 5 5 5 5 5 5 4 4 4 3 3 3 2 2 2 1 1 1 1 1 1 1 1 2
2 2 2 2 3 4 4 3 3 2 2 1 1 1 1 1 2 3 4 4 4 4 4 4 3 3 3 3 2 2 2 2 2 1 1 1 1 1 1 1 1 2 2
2 2 2 4 5 5 5 4 4 3 2 2 1 1 1 1 2 2 3 3 3 3 3 3 2 2 2 2 2 2 2 2 2 1 1 1 1 1 1 1 2 2 3
2 2 3 4 6 6 6 5 4 3 2 2 2 1 1 1 1 2 2 2 2 3 3 2 2 2 2 2 2 2 2 2 2 2 2 2 2 2 2 2 2 3 4
1 2 2 3 5 6 7 6 4 3 2 2 2 1 1 1 1 1 2 2 2 2 2 2 2 2 3 3 3 3 3 3 3 3 2 2 2 2 2 3 3 3 4
1 1 2 3 4 6 7 6 4 3 2 2 2 2 1 1 1 2 2 2 2 2 2 2 2 3 4 4 4 4 4 4 3 3 3 2 2 3 3 3 3 3 3
2 2 2 3 4 5 6 5 4 3 3 2 2 2 1 2 2 2 2 2 3 3 3 3 3 3 4 5 5 4 4 4 4 3 3 3 3 3 3 4 3 3 3
Wind_Speed
2 3 4 2 4 5 4 4 3 3 3 4 4 3 3 3 5 7 8 8 8 8 9 9 10 10 9 10 10 10 10 10 11 11 11 11 10 10 10 10 10 8 9
3 4 4 2 4 5 4 4 3 3 2 3 3 3 3 3 5 7 8 8 8 8 9 9 9 10 10 10 10 10 10 10 11 11 11 12 11 11 10 9 6 5 10
4 5 4 4 5 5 4 3 3 3 3 3 3 3 2 3 5 7 7 7 8 8 9 9 9 10 10 10 10 9 9 9 10 11 12 10 11 12 10 9 8 8 9
5 5 6 7 5 4 4 3 2 2 2 3 3 3 3 3 5 6 7 7 7 8 8 8 8 9 9 10 10 9 9 9 10 11 10 8 8 12 10 9 9 9 9
5 5 8 6 5 4 4 3 2 2 3 3 3 3 3 4 4 5 6 6 6 6 7 7 7 8 9 9 9 9 9 9 10 10 8 7 6 11 11 9 9 9 9
5 5 9 6 5 4 4 4 3 2 3 3 4 3 3 3 3 4 5 6 6 6 6 6 7 8 8 9 9 9 9 10 10 7 7 7 7 10 10 10 10 9 9
6 6 8 6 5 4 4 4 4 4 4 4 4 3 3 3 3 4 5 5 5 5 5 5 6 7 8 9 9 9 9 9 7 5 5 6 6 10 9 9 10 9 8
5 6 7 7 5 4 4 4 5 5 5 4 4 3 3 3 3 4 5 5 5 4 4 4 5 6 7 8 9 9 9 8 7 6 5 5 8 9 9 9 9 9 8
5 5 5 5 5 5 5 5 4 5 5 4 4 4 3 3 4 5 5 4 4 4 3 4 6 6 7 8 9 8 7 7 5 5 6 5 9 9 9 8 9 9 8
6 5 5 4 4 3 5 7 5 5 5 5 5 4 3 3 6 7 6 5 4 4 3 5 6 6 7 8 8 7 7 7 5 5 4 7 10 9 8 8 8 8 8
6 5 5 4 4 4 5 6 5 5 5 4 4 4 2 3 5 6 7 6 5 5 5 6 7 7 7 9 9 8 7 4 4 3 4 9 9 8 8 7 7 8 8
6 6 5 5 5 4 4 4 3 3 5 4 5 4 4 5 5 5 8 6 5 5 6 7 7 7 5 5 8 8 3 4 4 4 6 10 9 8 7 7 7 7 7
6 6 6 6 4 4 3 3 3 3 3 4 5 5 4 4 3 3 3 4 4 4 3 5 4 3 4 3 2 3 3 3 3 3 7 11 8 7 7 6 6 6 7
6 6 6 5 5 4 4 3 3 3 3 4 5 5 4 3 4 4 3 3 2 2 2 2 3 5 4 4 3 3 4 3 3 3 6 10 8 7 6 6 6 6 6
5 5 5 4 4 3 3 2 4 4 3 4 4 4 5 3 4 4 3 3 3 3 3 3 4 5 4 4 4 4 4 4 3 4 5 9 7 6 6 5 5 5 6
4 4 4 4 4 3 3 3 3 3 3 3 4 5 4 4 4 3 3 3 3 4 5 4 5 5 4 4 4 4 4 3 3 2 4 7 8 6 5 5 5 5 5
4 4 4 4 4 4 3 3 2 2 3 4 4 4 4 4 4 3 3 3 4 4 5 4 5 4 4 4 4 4 3 3 3 2 2 3 5 8 6 5 4 4 5
4 4 3 3 4 4 3 3 3 3 4 3 3 4 4 4 3 2 3 3 4 3 3 3 3 4 4 3 3 3 2 2 3 2 2 3 2 4 7 7 5 5 5
4 4 3 3 3 3 3 3 4 4 4 3 3 3 4 4 4 3 3 3 3 3 3 3 4 3 3 3 2 2 2 2 2 3 3 3 3 3 4 8 8 5 4
4 4 3 3 3 2 2 3 3 4 3 3 3 4 3 3 4 3 3 3 3 3 3 4 4 3 2 1 2 3 2 2 2 2 2 2 2 3 3 4 5 6 6
4 4 3 3 2 2 1 1 2 3 3 3 3 4 3 4 4 3 3 3 2 3 3 3 2 3 2 1 1 2 3 3 2 2 1 1 2 2 3 3 2 2 4
5 4 4 4 3 2 2 2 1 2 2 3 3 3 3 3 3 3 3 2 3 2 3 3 2 1 1 1 0 1 2 3 2 2 1 2 1 2 2 3 2 2 1
5 5 4 3 3 3 3 3 3 3 2 2 2 2 3 3 3 3 3 2 2 1 2 1 1 0 0 1 1 2 1 1 1 2 1 1 1 1 1 2 2 2 2
6 5 5 4 4 3 3 2 3 2 2 2 1 3 3 3 3 3 2 2 1 1 1 1 1 1 1 1 0 1 2 2 2 1 2 2 1 1 0 1 1 2 2
6 6 5 5 4 4 3 3 2 2 2 2 2 3 2 3 3 3 2 1 1 1 1 1 0 1 1 1 1 1 0 1 2 2 0 0 1 1 1 1 0 1 2
7 6 6 5 4 4 4 3 2 2 2 2 2 2 1 2 2 3 2 2 1 1 1 0 0 1 1 1 2 2 1 1 1 1 1 2 1 0 0 1 1 1 1
Wind_Direction
70 80 102 173 168 156 153 148 148 149 158 163 157 158 163 167 165 163 161 161 163 167 169 171 169 168 167 167 166 167 166 166 167 163 163 163 163 162 164 169 179 166 147
58 76 93 122 143 146 144 143 133 129 140 153 154 161 155 150 154 159 160 161 164 168 169 168 168 168 168 169 171 173 173 174 172 170 171 171 168 167 171 177 186 141 150
73 84 102 100 118 126 128 124 121 122 133 143 147 152 143 137 151 158 158 161 166 169 169 169 170 171 171 171 173 174 172 173 171 176 183 181 166 168 171 172 164 158 161
72 78 80 91 101 104 106 108 118 121 136 145 144 149 144 141 149 157 160 165 168 170 170 174 174 174 174 174 175 174 173 176 182 192 192 180 169 161 171 173 170 167 166
78 76 84 86 80 79 85 92 112 130 148 146 133 137 141 140 150 159 162 162 164 166 168 171 176 177 178 177 177 176 177 183 190 204 184 175 165 154 170 176 176 173 170
86 80 86 78 67 70 80 85 86 98 125 131 126 123 125 126 136 146 152 155 159 164 167 175 181 183 182 180 178 178 182 190 197 190 174 172 161 156 171 178 179 173 169
77 76 86 79 64 64 76 72 69 77 98 103 108 105 109 117 129 140 146 152 157 158 162 173 181 183 182 181 180 180 183 192 192 168 166 163 148 150 165 175 177 171 170
74 76 87 96 75 74 79 70 65 75 87 86 83 82 97 113 122 130 135 139 143 143 152 172 174 171 176 175 171 171 176 196 179 165 163 150 137 150 159 161 164 165 168
73 71 70 91 101 112 106 82 73 73 83 78 72 71 80 111 129 130 130 132 134 138 150 155 155 155 159 160 160 160 171 197 189 163 163 146 141 154 160 163 166 169 169
75 72 70 67 66 76 101 96 82 81 81 77 75 66 59 113 138 137 134 122 122 129 136 131 137 141 146 146 151 163 179 201 177 156 150 132 141 155 164 167 168 169 169
77 76 75 74 67 57 68 88 98 100 92 93 93 78 46 63 94 118 94 101 110 114 117 120 126 132 139 147 155 171 190 181 147 137 130 122 139 152 161 166 170 172 175
84 80 79 71 65 59 64 75 67 75 78 61 54 47 48 54 63 77 104 111 118 118 125 123 132 146 164 143 154 181 177 154 143 136 121 127 137 149 157 162 167 172 175
90 85 83 79 74 64 65 65 59 59 68 69 62 47 46 44 59 65 77 109 117 127 113 125 148 123 116 111 118 133 132 125 123 122 120 125 134 145 154 157 161 168 167
83 83 77 76 75 60 51 55 55 58 60 54 54 37 45 43 41 43 46 48 52 65 73 85 106 97 93 101 105 105 113 118 116 111 114 122 130 143 151 155 160 168 169
90 90 83 80 78 77 72 42 55 51 53 66 55 49 42 47 46 47 46 38 44 53 69 81 89 94 94 96 87 90 95 96 107 114 119 126 132 141 152 159 165 165 167
99 95 92 90 87 82 82 68 59 63 68 58 62 57 46 50 51 51 56 46 53 60 59 68 79 87 82 81 82 80 83 93 97 109 124 134 140 140 148 163 169 167 170
102 95 93 96 86 77 79 82 80 72 73 68 66 66 56 55 57 61 64 64 63 68 73 76 81 85 91 90 83 79 80 81 104 114 131 140 145 146 145 152 159 163 167
107 104 99 91 90 89 81 74 74 72 77 78 72 73 65 60 60 58 70 72 73 76 78 81 86 86 83 77 76 75 81 98 113 129 132 143 143 140 144 142 142 151 159
118 115 110 92 87 87 95 100 89 83 74 73 71 69 71 69 67 67 68 72 81 79 80 78 77 72 81 77 89 95 93 98 113 116 120 131 130 139 138 137 144 139 142
129 125 120 119 104 106 113 104 96 94 89 81 78 69 68 77 76 70 82 78 78 83 82 79 80 74 71 68 74 86 93 104 104 102 122 119 127 138 133 132 150 148 144
147 142 141 133 120 126 117 116 109 99 95 90 80 72 74 70 70 69 74 78 73 78 76 87 91 106 100 90 117 117 114 115 104 107 101 100 121 132 132 132 149 140 148
160 156 156 153 145 149 123 121 110 95 99 91 78 79 77 76 74 83 75 89 84 93 98 93 87 75 106 118 1 156 148 142 148 118 144 159 136 150 148 147 135 153 170
167 164 153 146 146 143 141 147 135 136 138 114 101 93 73 68 68 71 82 75 86 106 106 113 128 188 160 143 341 323 314 100 136 133 128 122 146 154 161 135 148 153 161
169 161 155 153 147 144 151 136 139 129 109 95 98 85 81 73 67 75 81 87 91 88 108 179 118 240 240 227 154 320 334 347 285 157 155 130 138 152 116 125 128 137 152
165 160 153 151 147 146 149 141 155 136 121 115 104 97 89 85 77 71 73 79 84 85 70 22 46 275 255 284 289 265 203 218 266 259 177 125 136 146 149 164 161 153 143
162 161 155 153 150 153 157 148 150 131 120 115 114 110 120 100 91 75 75 68 65 47 45 340 258 222 290 323 305 287 263 252 251 249 220 214 215 174 165 173 225 179 141